KB0RPJ Weather Reports


time (UTC)temp
F
wind
direction
speed
knots
gust
knots
rain 1hr
in
rain 24hr
in
rain mn
in
humidity
%
barometer
mb
20260508004005 65 186 5.2 6.1 0.00 0.00 0.00 48 1008.8
20260508003505 65 178 7.0 8.7 0.00 0.00 0.00 48 1008.8
20260508003005 65 177 2.6 5.2 0.00 0.00 0.00 48 1008.8
20260508002505 66 171 3.5 7.8 0.00 0.00 0.00 47 1008.8
20260508002005 66 150 3.5 6.1 0.00 0.00 0.00 47 1008.8
20260508001504 66 165 9.6 12.2 0.00 0.00 0.00 47 1008.8
20260508001005 66 194 5.2 6.1 0.00 0.00 0.00 46 1008.9
20260508000505 67 179 4.3 6.1 0.00 0.00 0.00 45 1009.0
20260508000005 67 191 4.3 6.1 0.00 0.00 0.00 46 1009.0
20260507235515 67 170 4.3 5.2 0.00 0.00 0.00 46 1009.1
20260507235006 68 204 8.7 8.7 0.00 0.00 0.00 45 1009.1
20260507234508 67 143 7.8 8.7 0.00 0.00 0.00 45 1009.2
20260507234008 67 197 4.3 6.1 0.00 0.00 0.00 46 1009.2
20260507233506 67 194 4.3 6.1 0.00 0.00 0.00 44 1009.2
20260507233005 68 195 13.9 13.9 0.00 0.00 0.00 44 1009.4
20260507232506 68 215 6.1 12.2 0.00 0.00 0.00 44 1009.3
20260507232006 68 163 4.3 7.0 0.00 0.00 0.00 44 1009.3
20260507231505 68 183 4.3 7.8 0.00 0.00 0.00 44 1009.3
20260507231008 69 157 2.6 7.8 0.00 0.00 0.00 46 1009.4
20260507230505 69 211 6.1 10.4 0.00 0.00 0.00 44 1009.6
20260507230008 69 176 3.5 7.0 0.00 0.00 0.00 45 1009.6
20260507225505 69 201 7.8 8.7 0.00 0.00 0.00 43 1009.7
20260507225007 69 184 7.0 7.8 0.00 0.00 0.00 44 1009.7
20260507224505 69 162 4.3 6.1 0.00 0.00 0.00 44 1009.8
20260507224005 69 186 5.2 10.4 0.00 0.00 0.00 43 1009.8
20260507223504 69 180 5.2 13.0 0.00 0.00 0.00 43 1009.8
20260507223005 69 195 7.8 13.0 0.00 0.00 0.00 43 1010.0
20260507222504 69 173 6.1 6.1 0.00 0.00 0.00 43 1010.0
20260507222005 69 192 6.1 7.8 0.00 0.00 0.00 43 1010.2
20260507221505 69 208 7.0 8.7 0.00 0.00 0.00 43 1010.2
20260507221005 70 229 5.2 7.8 0.00 0.00 0.00 43 1010.2
20260507220505 69 195 5.2 13.9 0.00 0.00 0.00 43 1010.3
20260507220005 69 175 6.1 13.9 0.00 0.00 0.00 44 1010.3
20260507215505 69 174 4.3 10.4 0.00 0.00 0.00 43 1010.4
20260507215005 69 213 4.3 10.4 0.00 0.00 0.00 46 1010.4
20260507214507 68 151 6.1 7.8 0.00 0.00 0.00 43 1010.4
20260507214005 67 214 8.7 8.7 0.00 0.00 0.00 45 1010.4
20260507213505 67 179 8.7 8.7 0.00 0.00 0.00 45 1010.5
20260507213005 67 167 7.0 8.7 0.00 0.00 0.00 44 1010.5
20260507212519 67 179 7.8 12.2 0.00 0.00 0.00 43 1010.5
20260507212006 67 222 5.2 7.8 0.00 0.00 0.00 41 1010.6
20260507211512 68 227 4.3 7.8 0.00 0.00 0.00 43 1010.6
20260507211005 67 191 6.1 8.7 0.00 0.00 0.00 47 1010.5
20260507210510 67 224 7.8 8.7 0.00 0.00 0.00 43 1010.7
20260507210005 68 166 7.0 11.3 0.00 0.00 0.00 42 1010.6
20260507205506 68 182 5.2 7.8 0.00 0.00 0.00 42 1010.7
20260507205008 69 244 7.8 13.0 0.00 0.00 0.00 41 1010.7
20260507204505 69 184 10.4 12.2 0.00 0.00 0.00 42 1010.8
20260507204004 69 232 9.6 10.4 0.00 0.00 0.00 41 1010.8
20260507203505 69 210 7.0 7.8 0.00 0.00 0.00 41 1010.8
20260507203004 68 186 7.8 10.4 0.00 0.00 0.00 41 1010.8
20260507202504 68 216 7.8 10.4 0.00 0.00 0.00 40 1011.0
20260507202005 69 229 6.1 10.4 0.00 0.00 0.00 41 1011.0
20260507201505 69 196 5.2 14.8 0.00 0.00 0.00 41 1011.2
20260507201005 69 197 7.0 7.0 0.00 0.00 0.00 43 1011.1
20260507200504 68 176 12.2 13.0 0.00 0.00 0.00 43 1011.3
20260507200004 68 193 8.7 10.4 0.00 0.00 0.00 43 1011.3
20260507195505 68 222 13.9 14.8 0.00 0.00 0.00 43 1011.4
20260507195005 67 168 7.8 10.4 0.00 0.00 0.00 43 1011.4
20260507194517 68 210 7.8 7.8 0.00 0.00 0.00 44 1011.5
20260507194005 67 220 6.1 12.2 0.00 0.00 0.00 42 1011.6
20260507193505 67 233 10.4 13.0 0.00 0.00 0.00 43 1011.7
20260507193005 67 218 5.2 13.0 0.00 0.00 0.00 45 1011.8
20260507192505 67 218 2.6 19.1 0.00 0.00 0.00 43 1011.8
20260507192005 67 301 8.7 19.1 0.00 0.00 0.00 43 1011.7
20260507191505 66 221 5.2 7.0 0.00 0.00 0.00 44 1011.9
20260507191006 66 211 12.2 13.0 0.00 0.00 0.00 44 1011.9
20260507190508 66 230 9.6 11.3 0.00 0.00 0.00 42 1012.1
20260507190007 66 229 5.2 7.8 0.00 0.00 0.00 45 1012.0
20260507185506 66 236 8.7 8.7 0.00 0.00 0.00 45 1012.2
20260507185007 66 308 4.3 7.0 0.00 0.00 0.00 44 1012.2
20260507184505 65 221 6.1 13.0 0.00 0.00 0.00 44 1012.4
20260507184005 65 235 7.0 10.4 0.00 0.00 0.00 45 1012.5
20260507183504 65 220 6.1 10.4 0.00 0.00 0.00 44 1012.4
20260507183005 65 219 6.1 7.8 0.00 0.00 0.00 44 1012.4
20260507182505 65 190 7.8 10.4 0.00 0.00 0.00 46 1012.5
20260507182005 65 152 9.6 10.4 0.00 0.00 0.00 44 1012.6
20260507181504 65 220 12.2 18.2 0.00 0.00 0.00 45 1012.6
20260507181009 65 210 6.1 10.4 0.00 0.00 0.00 46 1012.6
20260507180508 65 234 1.7 11.3 0.00 0.00 0.00 44 1012.7
20260507180005 64 211 8.7 11.3 0.00 0.00 0.00 48 1012.7
20260507175504 64 207 8.7 11.3 0.00 0.00 0.00 46 1012.9
20260507175005 64 223 8.7 10.4 0.00 0.00 0.00 45 1012.8
20260507174506 64 209 6.1 11.3 0.00 0.00 0.00 46 1013.0
20260507174005 64 203 12.2 12.2 0.00 0.00 0.00 47 1013.1
20260507173505 64 189 10.4 13.0 0.00 0.00 0.00 45 1013.2
20260507173005 64 201 6.1 12.2 0.00 0.00 0.00 46 1013.2
20260507172512 64 216 10.4 13.0 0.00 0.00 0.00 47 1013.3
20260507172005 64 210 6.1 13.0 0.00 0.00 0.00 46 1013.4
20260507171506 64 228 7.8 13.9 0.00 0.00 0.00 47 1013.5
20260507171005 64 173 13.0 19.1 0.00 0.00 0.00 47 1013.5
20260507170515 64 270 5.2 8.7 0.00 0.00 0.00 47 1013.5
20260507170004 63 185 4.3 10.4 0.00 0.00 0.00 48 1013.7
20260507165505 63 234 4.3 13.0 0.00 0.00 0.00 48 1013.9
20260507165008 63 202 7.8 15.6 0.00 0.00 0.00 47 1013.8
20260507164504 63 223 4.3 8.7 0.00 0.00 0.00 47 1013.9
20260507164004 63 194 10.4 11.3 0.00 0.00 0.00 48 1013.9
20260507163505 63 211 11.3 12.2 0.00 0.00 0.00 49 1014.0
20260507163004 62 213 5.2 8.7 0.00 0.00 0.00 49 1014.0
20260507162504 62 192 7.0 10.4 0.00 0.00 0.00 50 1014.1
20260507162004 62 224 5.2 11.3 0.00 0.00 0.00 48 1014.2
20260507161504 62 215 9.6 15.6 0.00 0.00 0.00 50 1014.2
20260507161005 62 198 6.1 15.6 0.00 0.00 0.00 50 1014.2
20260507160504 62 202 9.6 11.3 0.00 0.00 0.00 51 1014.3
20260507160005 61 238 5.2 6.1 0.00 0.00 0.00 51 1014.3
20260507155504 61 221 5.2 7.0 0.00 0.00 0.00 52 1014.5
20260507155004 60 265 11.3 13.9 0.00 0.00 0.00 52 1014.5
20260507154505 60 223 4.3 12.2 0.00 0.00 0.00 54 1014.5
20260507154020 60 220 5.2 10.4 0.00 0.00 0.00 53 1014.6
20260507153505 59 219 5.2 10.4 0.00 0.00 0.00 54 1014.6
20260507153005 59 229 7.8 10.4 0.00 0.00 0.00 54 1014.6
20260507152505 58 249 8.7 13.0 0.00 0.00 0.00 55 1014.6
20260507152005 58 247 5.2 7.0 0.00 0.00 0.00 56 1014.5
20260507151504 58 192 11.3 12.2 0.00 0.00 0.00 56 1014.6
20260507151005 57 214 5.2 7.0 0.00 0.00 0.00 57 1014.7
20260507150505 57 228 6.1 12.2 0.00 0.00 0.00 57 1014.6
20260507150005 57 209 7.0 12.2 0.00 0.00 0.00 58 1014.8
20260507145505 57 194 7.8 10.4 0.00 0.00 0.00 59 1014.8
20260507145007 56 215 5.2 7.0 0.00 0.00 0.00 61 1014.8
20260507144504 56 221 8.7 11.3 0.00 0.00 0.00 62 1014.9
20260507144005 55 206 5.2 7.0 0.00 0.00 0.00 62 1014.9
20260507143504 55 214 5.2 8.7 0.00 0.00 0.00 63 1015.0
20260507143005 55 227 6.1 8.7 0.00 0.00 0.00 64 1015.0
20260507142504 54 215 5.2 10.4 0.00 0.00 0.00 65 1014.9
20260507142005 54 221 7.0 10.4 0.00 0.00 0.00 66 1015.0
20260507141505 53 220 6.1 7.0 0.00 0.00 0.00 67 1014.9
20260507141007 53 229 4.3 5.2 0.00 0.00 0.00 68 1015.0
20260507140506 52 212 1.7 5.2 0.00 0.00 0.00 69 1015.0
20260507140005 52 217 5.2 6.1 0.00 0.00 0.00 69 1015.0
20260507135505 52 229 4.3 6.1 0.00 0.00 0.00 70 1015.1
20260507135004 51 234 4.3 7.0 0.00 0.00 0.00 70 1015.1
20260507134505 51 212 6.1 8.7 0.00 0.00 0.00 71 1015.2
20260507134015 51 221 4.3 7.0 0.00 0.00 0.00 71 1015.1
20260507133505 50 215 7.8 7.8 0.00 0.00 0.00 71 1015.2
20260507133006 50 190 6.1 7.0 0.00 0.00 0.00 72 1015.2
20260507132504 49 233 4.3 7.0 0.00 0.00 0.00 73 1015.3
20260507132005 49 204 2.6 6.1 0.00 0.00 0.00 75 1015.3
20260507131517 48 172 0.9 2.6 0.00 0.00 0.00 75 1015.4
20260507131005 48 186 2.6 2.6 0.00 0.00 0.00 75 1015.5
20260507130506 47 149 1.7 1.7 0.00 0.00 0.00 75 1015.5
20260507130005 47 200 1.7 5.2 0.00 0.00 0.00 75 1015.4
20260507125507 46 208 1.7 5.2 0.00 0.00 0.00 76 1015.4
20260507125007 46 194 0.9 5.2 0.00 0.00 0.00 76 1015.4
20260507124505 45 208 0.9 5.2 0.00 0.00 0.00 77 1015.4
20260507124004 45 158 1.7 2.6 0.00 0.00 0.00 77 1015.4
20260507123504 44 209 0.9 2.6 0.00 0.00 0.00 77 1015.4
20260507123004 44 158 0.9 6.1 0.00 0.00 0.00 77 1015.5
20260507122504 44 205 1.7 2.6 0.00 0.00 0.00 77 1015.5
20260507122004 43 156 0.9 2.6 0.00 0.00 0.00 78 1015.4
20260507121505 43 134 0.9 1.7 0.00 0.00 0.00 77 1015.5
20260507121005 42 134 1.7 1.7 0.00 0.00 0.00 78 1015.4
20260507120504 42 134 0.9 0.9 0.00 0.00 0.00 78 1015.4
20260507120005 42 134 1.7 1.7 0.00 0.00 0.00 78 1015.3
20260507115504 42 136 0.0 0.9 0.00 0.00 0.00 78 1015.3
20260507115005 41 148 0.0 0.0 0.00 0.00 0.00 78 1015.3
20260507114504 41 152 0.0 0.0 0.00 0.00 0.00 78 1015.2
20260507114005 41 152 0.0 0.0 0.00 0.00 0.00 78 1015.2
20260507113505 41 152 0.0 0.0 0.00 0.00 0.00 78 1015.2
20260507113005 41 152 0.0 0.0 0.00 0.00 0.00 78 1015.1
20260507112505 41 152 0.0 0.0 0.00 0.00 0.00 78 1015.1
20260507112005 41 153 0.0 0.0 0.00 0.00 0.00 78 1015.1
20260507111506 41 152 0.0 0.0 0.00 0.00 0.00 77 1015.0
20260507111005 41 152 0.0 0.0 0.00 0.00 0.00 77 1015.0
20260507110504 41 152 0.0 0.0 0.00 0.00 0.00 77 1014.9
20260507110005 41 152 0.0 0.0 0.00 0.00 0.00 77 1014.9
20260507105505 41 152 0.0 0.0 0.00 0.00 0.00 77 1014.9
20260507105004 41 152 0.0 0.0 0.00 0.00 0.00 77 1015.0
20260507104505 41 152 0.0 0.0 0.00 0.00 0.00 77 1015.0
20260507104012 41 152 0.0 0.0 0.00 0.00 0.00 77 1015.0
20260507103505 41 152 0.0 0.0 0.00 0.00 0.00 78 1015.0
20260507103006 41 152 0.0 0.0 0.00 0.00 0.00 78 1015.1
20260507102516 41 152 0.0 0.0 0.00 0.00 0.00 78 1015.2
20260507102007 41 152 0.0 0.0 0.00 0.00 0.00 77 1015.2
20260507101507 41 152 0.0 0.0 0.00 0.00 0.00 77 1015.2
20260507101018 41 152 0.0 0.0 0.00 0.00 0.00 76 1015.2
20260507100506 41 152 0.0 0.0 0.00 0.00 0.00 75 1015.3
20260507100008 41 152 0.0 0.0 0.00 0.00 0.00 76 1015.3
20260507095508 41 152 0.0 0.0 0.00 0.00 0.00 76 1015.3
20260507095005 41 152 0.0 0.0 0.00 0.00 0.00 76 1015.3
20260507094505 41 152 0.0 0.0 0.00 0.00 0.00 76 1015.3
20260507094006 42 152 0.0 0.0 0.00 0.00 0.00 77 1015.4
20260507093510 42 152 0.0 0.0 0.00 0.00 0.00 77 1015.5
20260507093005 42 152 0.0 0.0 0.00 0.00 0.00 77 1015.5
20260507092505 42 152 0.0 0.0 0.00 0.00 0.00 78 1015.5
20260507092006 42 172 0.0 0.0 0.00 0.00 0.00 78 1015.5
20260507091505 42 163 0.0 0.0 0.00 0.00 0.00 78 1015.5
20260507091005 42 139 0.0 0.0 0.00 0.00 0.00 78 1015.6
20260507090506 42 139 0.0 0.0 0.00 0.00 0.00 79 1015.6
20260507090017 42 139 0.0 0.0 0.00 0.00 0.00 79 1015.6
20260507085505 42 139 0.9 1.7 0.00 0.00 0.00 78 1015.6
20260507085007 43 139 0.9 1.7 0.00 0.00 0.00 78 1015.6
20260507084505 43 139 1.7 1.7 0.00 0.00 0.00 77 1015.7
20260507084005 43 139 1.7 1.7 0.00 0.00 0.00 77 1015.8
20260507083504 43 139 0.9 1.7 0.00 0.00 0.00 77 1015.8
20260507083005 43 140 2.6 2.6 0.00 0.00 0.00 78 1015.9
20260507082504 42 138 0.0 0.0 0.00 0.00 0.00 78 1015.9
20260507082005 43 137 0.0 0.0 0.00 0.00 0.00 77 1016.0
20260507081505 43 137 0.0 0.0 0.00 0.00 0.00 78 1016.1
20260507081005 43 137 0.0 0.0 0.00 0.00 0.00 77 1016.0
20260507080505 43 137 0.0 1.7 0.00 0.00 0.00 76 1016.0
20260507080005 43 137 0.9 1.7 0.00 0.00 0.00 75 1016.1
20260507075504 44 160 0.9 1.7 0.00 0.00 0.00 75 1016.1
20260507075005 44 215 0.0 0.9 0.00 0.00 0.00 75 1016.1
20260507074505 44 215 0.0 0.0 0.00 0.00 0.00 75 1016.1
20260507074022 44 214 0.0 0.0 0.00 0.00 0.00 75 1016.1
20260507073506 44 214 0.0 0.0 0.00 0.00 0.00 74 1016.2
20260507073005 44 214 0.0 0.0 0.00 0.00 0.00 74 1016.2
20260507072505 44 214 0.0 0.0 0.00 0.00 0.00 74 1016.3
20260507072004 44 214 0.0 0.0 0.00 0.00 0.00 73 1016.3
20260507071505 44 214 0.0 0.0 0.00 0.00 0.00 73 1016.3
20260507071006 44 214 0.0 0.0 0.00 0.00 0.00 72 1016.4
20260507070519 45 215 0.0 0.0 0.00 0.00 0.00 71 1016.4
20260507070009 45 214 0.0 0.0 0.00 0.00 0.00 70 1016.4
20260507065513 45 214 0.0 0.0 0.00 0.00 0.00 69 1016.5
20260507065010 45 215 0.0 0.0 0.00 0.00 0.00 68 1016.5
20260507064505 46 214 0.0 0.0 0.00 0.00 0.00 67 1016.6
20260507064005 46 214 0.0 0.0 0.00 0.00 0.00 67 1016.6
20260507063504 46 214 0.0 0.0 0.00 0.00 0.00 66 1016.7
20260507063005 46 214 0.0 0.0 0.00 0.00 0.00 65 1016.8
20260507062504 46 215 0.0 0.0 0.00 0.00 0.00 65 1016.8
20260507062006 46 214 0.0 0.0 0.00 0.00 0.00 65 1016.8
20260507061505 47 214 0.0 0.0 0.00 0.00 0.00 64 1016.8
20260507061005 47 215 0.0 0.0 0.00 0.00 0.00 64 1016.8
20260507060505 47 214 0.0 0.0 0.00 0.00 0.00 64 1016.8
20260507060005 47 214 0.0 0.0 0.00 0.00 0.00 63 1016.8
20260507055504 47 214 0.0 0.0 0.00 0.00 0.00 63 1016.9
20260507055014 47 214 0.0 0.0 0.00 0.00 0.00 63 1016.9
20260507054505 47 214 0.0 0.0 0.00 0.00 0.00 63 1017.0
20260507054005 47 215 0.0 0.0 0.00 0.00 0.00 63 1017.0
20260507053514 48 214 0.0 0.0 0.00 0.00 0.00 62 1016.9
20260507053005 48 214 0.0 0.9 0.00 0.00 0.00 60 1016.9
20260507052505 48 215 0.0 0.9 0.00 0.00 0.00 59 1016.9
20260507052005 48 215 0.0 0.0 0.00 0.00 0.00 59 1017.0
20260507051505 48 214 0.0 0.0 0.00 0.00 0.00 59 1017.0
20260507051005 48 215 0.0 0.0 0.00 0.00 0.00 58 1017.0
20260507050505 48 214 0.0 0.0 0.00 0.00 0.00 58 1017.1
20260507050016 48 214 0.0 0.0 0.00 0.00 0.00 59 1017.0
20260507045505 48 215 0.0 0.0 0.00 0.00 0.00 59 1017.0
20260507045008 48 214 0.0 0.0 0.00 0.00 0.00 60 1017.0
20260507044505 48 214 0.0 0.0 0.00 0.00 0.00 60 1017.0
20260507044005 48 215 0.0 0.0 0.00 0.00 0.00 60 1017.0
20260507043504 48 214 0.0 0.0 0.00 0.00 0.00 60 1017.1
20260507043005 48 214 0.9 0.9 0.00 0.00 0.00 61 1017.1
20260507042504 48 312 0.0 0.0 0.00 0.00 0.00 60 1017.1
20260507042005 48 316 0.0 0.0 0.00 0.00 0.00 61 1017.2
20260507041504 48 312 0.0 0.0 0.00 0.00 0.00 59 1017.1
20260507041005 48 315 0.0 0.0 0.00 0.00 0.00 59 1017.1
20260507040504 48 313 0.0 0.0 0.00 0.00 0.00 59 1017.1
20260507040005 48 311 0.0 0.0 0.00 0.00 0.00 58 1017.1
20260507035505 49 311 0.0 0.0 0.00 0.00 0.00 57 1017.1
20260507035005 49 314 0.0 0.0 0.00 0.00 0.00 56 1017.2
20260507034505 49 310 0.0 0.0 0.00 0.00 0.00 55 1017.2
20260507034005 49 314 0.0 0.0 0.00 0.00 0.00 54 1017.1
20260507033517 49 314 0.0 0.0 0.00 0.00 0.00 54 1017.1
20260507033005 49 315 0.0 0.0 0.00 0.00 0.00 53 1017.1
20260507032505 49 313 0.0 0.0 0.00 0.00 0.00 53 1017.2
20260507032005 49 312 0.0 0.0 0.00 0.00 0.00 52 1017.2
20260507031506 49 313 0.0 0.0 0.00 0.00 0.00 52 1017.2
20260507031005 49 311 0.0 0.0 0.00 0.00 0.00 50 1017.1
20260507030506 49 312 0.0 0.0 0.00 0.00 0.00 50 1017.1
20260507030011 50 315 0.0 0.0 0.00 0.00 0.00 50 1017.2
20260507025505 50 313 0.0 0.0 0.00 0.00 0.00 49 1017.1
20260507025008 50 311 0.0 0.0 0.00 0.00 0.00 49 1017.1
20260507024505 50 314 0.0 0.0 0.00 0.00 0.00 47 1017.0
20260507024005 51 312 0.0 0.0 0.00 0.00 0.00 47 1017.1
20260507023505 51 312 0.0 0.0 0.00 0.00 0.00 45 1017.0
20260507023005 51 312 0.0 0.0 0.00 0.00 0.00 45 1016.9
20260507022504 51 314 0.0 0.0 0.00 0.00 0.00 45 1016.9
20260507022006 51 313 0.0 0.0 0.00 0.00 0.00 44 1016.8
20260507021505 52 314 0.0 0.0 0.00 0.00 0.00 44 1016.8
20260507021004 52 316 0.0 0.0 0.00 0.00 0.00 43 1016.8
20260507020504 52 315 0.0 0.0 0.00 0.00 0.00 42 1016.7
20260507020005 53 312 0.0 0.0 0.00 0.00 0.00 42 1016.6
20260507015504 53 312 0.0 0.0 0.00 0.00 0.00 41 1016.5
20260507015005 53 311 0.0 0.0 0.00 0.00 0.00 41 1016.5
20260507014505 54 311 0.0 0.0 0.00 0.00 0.00 40 1016.5
20260507014017 54 312 0.0 0.0 0.00 0.00 0.00 40 1016.6
20260507013505 54 312 0.0 0.0 0.00 0.00 0.00 39 1016.5
20260507013005 55 312 0.0 0.0 0.00 0.00 0.00 39 1016.4
20260507012505 55 311 0.0 0.0 0.00 0.00 0.00 39 1016.4
20260507012006 55 311 0.0 0.0 0.00 0.00 0.00 37 1016.4
20260507011515 55 311 0.0 0.0 0.00 0.00 0.00 37 1016.4
20260507011006 55 313 0.9 1.7 0.00 0.00 0.00 37 1016.4
20260507010506 56 286 0.0 0.0 0.00 0.00 0.00 37 1016.5
20260507010005 56 288 0.0 0.0 0.00 0.00 0.00 35 1016.5
20260507005505 56 289 0.0 0.9 0.00 0.00 0.00 35 1016.4
20260507005008 56 279 0.9 0.9 0.00 0.00 0.00 36 1016.5
20260507004505 56 295 1.7 1.7 0.00 0.00 0.00 35 1016.4